New York, NY

3:49 AM EST on December 10, 2019 (GMT -0500)
La Guardia

Weather History for KLGA - October, 2019

Change the Weather History Date:

Tuesday, October 1, 2019

  Actual Average Record
Temperature  
Mean Temperature 73 °F 63 °F  
Max Temperature 82 °F 71 °F 87 °F (1950)
Min Temperature 64 °F 56 °F 39 °F (1947)
Degree Days  
Heating Degree Days 0 4  
Month to date heating degree days 4  
Since 1 July heating degree days 39  
Cooling Degree Days 8 2  
Month to date cooling degree days 2  
Year to date cooling degree days 1192  
Growing Degree Days 23 (Base 50)    
Moisture  
Dew Point 59 °F    
Average Humidity 60    
Maximum Humidity 73    
Minimum Humidity 41    
Precipitation  
Precipitation 0.00 in 0.13 in 2.24 in (2010)
Month to date precipitation 0.13  
Year to date precipitation 34.11  
Snow  
Snow 0.00 in 0.00 in - ()
Month to date snowfall 0.0  
Since 1 July snowfall 0.0  
Snow Depth -    
Sea Level Pressure  
Sea Level Pressure 30.05 in    
Wind  
Wind Speed 10 mph (SW)    
Max Wind Speed 14 mph    
Max Gust Speed -    
Visibility 10 miles    
Events      
T = Trace of Precipitation, MM = Missing Value Source: NWS Daily Summary

Daily Weather History Graph

Daily Weather History Graph

Search for Another Location

Airport or City:

Astronomy

Oct. 01, 2019 Rise Set
Actual Time 6:51 AM EDT 6:37 PM EDT
Civil Twilight 6:24 AM EDT 7:05 PM EDT
Nautical Twilight 5:52 AM EDT 7:36 PM EDT
Astronomical Twilight 5:20 AM EDT 8:08 PM EDT
Moon 10:05 AM EDT (10/1) 8:48 PM EDT (10/1)
Length of Visible Light 12h 40m
Length of Day
11h 46m
Waxing Crescent, 12% of the Moon is Illuminated
Oct 1
Waxing Crescent
Oct 5
First Quarter
Oct 13
Full
Oct 21
Last Quarter
Oct 27
New

Hourly Weather History & Observations

Time (EDT) Temp. Heat Index Dew Point Humidity Pressure Visibility Wind Dir Wind Speed Gust Speed Precip Events Conditions
12:51 AM 64.0 °F - 55.0 °F 73% 30.19 in 10.0 mi SSW 10.4 mph - 0.00 in   Overcast
1:51 AM 64.0 °F - 55.0 °F 73% 30.18 in 10.0 mi SSE 8.1 mph - N/A   Overcast
2:51 AM 66.0 °F - 55.0 °F 68% 30.17 in 10.0 mi SSW 3.5 mph - N/A   Overcast
3:51 AM 64.9 °F - 54.0 °F 68% 30.16 in 10.0 mi SW 9.2 mph - N/A   Overcast
4:51 AM 64.9 °F - 54.0 °F 68% 30.14 in 10.0 mi SSW 8.1 mph - N/A   Overcast
5:51 AM 66.0 °F - 54.0 °F 65% 30.13 in 10.0 mi SW 10.4 mph - N/A   Overcast
5:59 AM 66.0 °F - 54.0 °F 65% 30.13 in 10.0 mi SSW 9.2 mph - N/A   Overcast
6:51 AM 66.0 °F - 55.0 °F 68% 30.14 in 10.0 mi SW 9.2 mph - N/A   Overcast
7:51 AM 66.9 °F - 55.9 °F 68% 30.13 in 10.0 mi SSW 10.4 mph - N/A   Overcast
8:51 AM 68.0 °F - 55.9 °F 65% 30.13 in 10.0 mi SW 9.2 mph - N/A   Overcast
9:51 AM 71.1 °F - 57.0 °F 61% 30.11 in 10.0 mi Variable 6.9 mph - N/A   Mostly Cloudy
10:51 AM 72.0 °F - 57.9 °F 61% 30.10 in 10.0 mi SW 12.7 mph - N/A   Mostly Cloudy
11:51 AM 73.0 °F - 57.9 °F 59% 30.08 in 10.0 mi WSW 13.8 mph - N/A   Mostly Cloudy
12:15 PM 73.9 °F - 59.0 °F 59% 30.07 in 10.0 mi WSW 10.4 mph - N/A   Scattered Clouds
12:32 PM 73.9 °F - 59.0 °F 59% 30.07 in 10.0 mi WSW 11.5 mph - N/A   Mostly Cloudy
12:51 PM 75.0 °F - 59.0 °F 57% 30.06 in 10.0 mi WSW 12.7 mph - N/A   Scattered Clouds
1:51 PM 77.0 °F - 60.1 °F 56% 30.01 in 10.0 mi SSW 13.8 mph - N/A   Partly Cloudy
2:51 PM 79.0 °F - 61.0 °F 54% 29.99 in 10.0 mi SW 13.8 mph - N/A   Scattered Clouds
3:51 PM 82.0 °F 82.7 °F 61.0 °F 49% 29.96 in 10.0 mi SSW 11.5 mph - N/A   Scattered Clouds
4:51 PM 82.0 °F 83.0 °F 62.1 °F 51% 29.95 in 10.0 mi SSW 9.2 mph - N/A   Scattered Clouds
5:51 PM 79.0 °F - 64.0 °F 60% 29.95 in 10.0 mi SSE 10.4 mph - N/A   Scattered Clouds
6:51 PM 78.1 °F - 64.0 °F 62% 29.94 in 10.0 mi South 9.2 mph - N/A   Scattered Clouds
7:51 PM 80.1 °F 81.5 °F 63.0 °F 56% 29.93 in 10.0 mi SW 11.5 mph - N/A   Mostly Cloudy
8:51 PM 79.0 °F - 64.0 °F 60% 29.93 in 10.0 mi SSW 9.2 mph - N/A   Mostly Cloudy
9:51 PM 78.1 °F - 64.0 °F 62% 29.93 in 10.0 mi SW 10.4 mph - N/A   Mostly Cloudy
10:51 PM 77.0 °F - 64.0 °F 64% 29.91 in 10.0 mi SW 11.5 mph - N/A   Mostly Cloudy
11:51 PM 75.9 °F - 64.0 °F 67% 29.89 in 10.0 mi SW 9.2 mph - N/A   Mostly Cloudy